Hourly Weather Barrancas

Today, 30 October, Friday

Time Temperature Precipitation Wind Pressure Humidity
00:00 +28°C° 0 mm 4 mps 749 mmHg 82%
01:00 +28°C° 0 mm 4 mps 749 mmHg 84%
02:00 +28°C° 0 mm 4 mps 749 mmHg 83%
03:00 +28°C° 0 mm 4 mps 749 mmHg 83%
04:00 +27°C° 0 mm 4 mps 749 mmHg 84%
05:00 +27°C° 0 mm 3 mps 749 mmHg 84%
06:00 +28°C° 0 mm 3 mps 750 mmHg 81%
07:00 +29°C° 0 mm 4 mps 750 mmHg 78%
08:00 +29°C° 0 mm 4 mps 751 mmHg 75%
09:00 +32°C° 0 mm 4 mps 751 mmHg 69%
10:00 +34°C° 0 mm 5 mps 751 mmHg 63%
11:00 +35°C° 0 mm 5 mps 751 mmHg 56%
12:00 +36°C° 0 mm 5 mps 750 mmHg 54%
13:00 +36°C° 0 mm 5 mps 749 mmHg 52%
14:00 +37°C° 0 mm 4 mps 748 mmHg 50%
15:00 +36°C° 0 mm 4 mps 748 mmHg 51%
16:00 +36°C° 0 mm 4 mps 747 mmHg 52%
17:00 +36°C° 0 mm 4 mps 747 mmHg 53%
18:00 +35°C° 0 mm 4 mps 748 mmHg 58%
19:00 +34°C° 0 mm 3 mps 749 mmHg 62%
20:00 +31°C° 0 mm 3 mps 749 mmHg 66%
21:00 +32°C° 0.1 mm 4 mps 750 mmHg 69%
22:00 +30°C° 0.1 mm 4 mps 750 mmHg 72%
23:00 +29°C° 0.1 mm 5 mps 751 mmHg 76%

Tomorrow, 31 October, Saturday

Time Temperature Precipitation Wind Pressure Humidity
00:00 +29°C° 0 mm 4 mps 750 mmHg 76%
01:00 +29°C° 0 mm 4 mps 750 mmHg 77%
02:00 +28°C° 0 mm 4 mps 749 mmHg 78%
03:00 +28°C° 0 mm 4 mps 749 mmHg 79%
04:00 +28°C° 0 mm 3 mps 750 mmHg 80%
05:00 +28°C° 0 mm 3 mps 750 mmHg 80%
06:00 +28°C° 0 mm 4 mps 750 mmHg 78%
07:00 +29°C° 0 mm 4 mps 751 mmHg 76%
08:00 +29°C° 0 mm 5 mps 751 mmHg 74%
09:00 +32°C° 0 mm 5 mps 751 mmHg 67%
10:00 +34°C° 0 mm 6 mps 751 mmHg 61%
11:00 +35°C° 0 mm 6 mps 751 mmHg 54%
12:00 +35°C° 0 mm 6 mps 750 mmHg 54%
13:00 +35°C° 0 mm 5 mps 749 mmHg 55%
14:00 +35°C° 0 mm 5 mps 748 mmHg 55%
15:00 +35°C° 0 mm 4 mps 748 mmHg 55%
16:00 +35°C° 0 mm 4 mps 748 mmHg 55%
17:00 +35°C° 0 mm 3 mps 748 mmHg 56%
18:00 +34°C° 0.3 mm 3 mps 748 mmHg 61%
19:00 +33°C° 0.3 mm 3 mps 749 mmHg 67%
20:00 +30°C° 0.3 mm 3 mps 749 mmHg 73%
21:00 +30°C° 0.3 mm 4 mps 750 mmHg 76%
22:00 +29°C° 0.3 mm 4 mps 750 mmHg 80%
23:00 +28°C° 0.3 mm 5 mps 750 mmHg 83%

Day after tomorrow, 1 November, Sunday

Time Temperature Precipitation Wind Pressure Humidity
00:00 +28°C° 0.1 mm 5 mps 750 mmHg 84%
01:00 +28°C° 0.1 mm 5 mps 750 mmHg 85%
02:00 +28°C° 0.1 mm 5 mps 749 mmHg 85%
03:00 +27°C° 0.4 mm 4 mps 749 mmHg 85%
04:00 +27°C° 0.4 mm 4 mps 750 mmHg 85%
05:00 +26°C° 0.4 mm 3 mps 750 mmHg 84%
06:00 +27°C° 0.5 mm 3 mps 750 mmHg 84%
07:00 +27°C° 0.5 mm 3 mps 751 mmHg 84%
08:00 +28°C° 0.5 mm 3 mps 752 mmHg 85%
09:00 +29°C° 0 mm 3 mps 752 mmHg 80%
10:00 +30°C° 0 mm 4 mps 752 mmHg 75%
11:00 +32°C° 0 mm 4 mps 752 mmHg 70%
12:00 +32°C° 0.2 mm 4 mps 751 mmHg 67%
13:00 +33°C° 0.2 mm 4 mps 750 mmHg 64%
14:00 +33°C° 0.2 mm 4 mps 749 mmHg 61%
15:00 +33°C° 0 mm 3 mps 749 mmHg 61%
16:00 +33°C° 0 mm 3 mps 749 mmHg 61%
17:00 +32°C° 0 mm 2 mps 749 mmHg 61%
18:00 +31°C° 0.2 mm 2 mps 749 mmHg 66%
19:00 +30°C° 0.2 mm 2 mps 750 mmHg 72%
20:00 +28°C° 0.2 mm 2 mps 751 mmHg 77%
21:00 +28°C° 0.7 mm 2 mps 751 mmHg 79%
22:00 +28°C° 0.7 mm 2 mps 751 mmHg 82%
23:00 +27°C° 0.7 mm 1 mps 751 mmHg 84%

2 November, Monday

Time Temperature Precipitation Wind Pressure Humidity
00:00 +27°C° 0.2 mm 1 mps 750 mmHg 85%
01:00 +27°C° 0.2 mm 1 mps 750 mmHg 85%
02:00 +27°C° 0.2 mm 1 mps 750 mmHg 86%
03:00 +27°C° 0.3 mm 1 mps 750 mmHg 86%
04:00 +27°C° 0.3 mm 1 mps 750 mmHg 87%
05:00 +24°C° 0.3 mm 0 mps 750 mmHg 87%
06:00 +27°C° 0.2 mm 1 mps 751 mmHg 84%
07:00 +28°C° 0.2 mm 1 mps 751 mmHg 81%
08:00 +28°C° 0.2 mm 1 mps 752 mmHg 78%
09:00 +29°C° 0.9 mm 1 mps 752 mmHg 74%
10:00 +30°C° 0.9 mm 1 mps 752 mmHg 69%
11:00 +32°C° 0.9 mm 1 mps 751 mmHg 64%
12:00 +31°C° 2.2 mm 1 mps 751 mmHg 67%
13:00 +31°C° 2.2 mm 1 mps 750 mmHg 69%
14:00 +30°C° 2.2 mm 1 mps 749 mmHg 72%
15:00 +30°C° 0.7 mm 1 mps 749 mmHg 75%
16:00 +29°C° 0.7 mm 2 mps 748 mmHg 79%
17:00 +28°C° 0.7 mm 2 mps 748 mmHg 83%
18:00 +28°C° 0 mm 2 mps 749 mmHg 83%
19:00 +28°C° 0 mm 2 mps 749 mmHg 83%
20:00 +28°C° 0 mm 2 mps 750 mmHg 82%
21:00 +28°C° 0 mm 2 mps 750 mmHg 82%
22:00 +27°C° 0 mm 2 mps 750 mmHg 82%
23:00 +27°C° 0 mm 2 mps 750 mmHg 82%

3 November, Tuesday

Time Temperature Precipitation Wind Pressure Humidity
00:00 +27°C° 0 mm 2 mps 750 mmHg 83%
01:00 +27°C° 0 mm 2 mps 750 mmHg 85%
02:00 +27°C° 0 mm 2 mps 749 mmHg 86%
03:00 +26°C° 0 mm 2 mps 749 mmHg 87%
04:00 +26°C° 0 mm 2 mps 749 mmHg 89%
05:00 +26°C° 0 mm 2 mps 749 mmHg 90%
06:00 +27°C° 0 mm 2 mps 750 mmHg 86%
07:00 +27°C° 0 mm 3 mps 751 mmHg 83%
08:00 +28°C° 0 mm 3 mps 751 mmHg 79%
09:00 +29°C° 0 mm 3 mps 751 mmHg 73%
10:00 +31°C° 0 mm 3 mps 751 mmHg 67%
11:00 +33°C° 0 mm 3 mps 751 mmHg 61%
12:00 +34°C° 0.1 mm 3 mps 750 mmHg 60%
13:00 +34°C° 0.1 mm 3 mps 749 mmHg 58%
14:00 +35°C° 0.1 mm 3 mps 748 mmHg 57%
15:00 +34°C° 0.1 mm 3 mps 748 mmHg 58%
16:00 +34°C° 0.1 mm 3 mps 748 mmHg 60%
17:00 +34°C° 0.1 mm 3 mps 748 mmHg 61%
18:00 +31°C° 0.8 mm 3 mps 748 mmHg 68%
19:00 +30°C° 0.8 mm 3 mps 749 mmHg 74%
20:00 +29°C° 0.8 mm 3 mps 750 mmHg 80%
21:00 +28°C° 0.6 mm 3 mps 750 mmHg 82%
22:00 +28°C° 0.6 mm 3 mps 750 mmHg 84%
23:00 +27°C° 0.6 mm 4 mps 751 mmHg 86%

4 November, Wednesday

Time Temperature Precipitation Wind Pressure Humidity
00:00 +27°C° 0 mm 4 mps 750 mmHg 87%
01:00 +27°C° 0 mm 4 mps 750 mmHg 88%
02:00 +27°C° 0 mm 4 mps 750 mmHg 89%
03:00 +26°C° 0 mm 4 mps 750 mmHg 89%
04:00 +26°C° 0 mm 4 mps 750 mmHg 89%
05:00 +26°C° 0 mm 4 mps 750 mmHg 89%
06:00 +26°C° 0 mm 4 mps 751 mmHg 87%
07:00 +27°C° 0 mm 4 mps 751 mmHg 84%
08:00 +27°C° 0 mm 5 mps 752 mmHg 82%
09:00 +29°C° 0 mm 5 mps 752 mmHg 77%
10:00 +30°C° 0 mm 5 mps 752 mmHg 71%
11:00 +32°C° 0 mm 5 mps 752 mmHg 65%
12:00 +32°C° 0 mm 4 mps 751 mmHg 65%
13:00 +33°C° 0 mm 4 mps 750 mmHg 64%
14:00 +33°C° 0 mm 4 mps 749 mmHg 64%
15:00 +33°C° 0 mm 3 mps 749 mmHg 63%
16:00 +33°C° 0 mm 3 mps 749 mmHg 63%
17:00 +33°C° 0 mm 3 mps 748 mmHg 62%
18:00 +31°C° 0.1 mm 3 mps 749 mmHg 67%
19:00 +30°C° 0.1 mm 3 mps 749 mmHg 72%
20:00 +29°C° 0.1 mm 2 mps 750 mmHg 77%
21:00 +28°C° 1.3 mm 3 mps 750 mmHg 79%
22:00 +28°C° 1.3 mm 3 mps 750 mmHg 82%
23:00 +27°C° 1.3 mm 4 mps 751 mmHg 85%
Show more